📊 John's Weather Station

Last reading: 2021-05-14 22:24:31

TEMPERATURE

--

Temperature 20 readings
Min Max Average
14.99 °C 16.13 °C 15.5 °C

HUMIDITY

--

Humidity 20 readings
Min Max Average
76.54 % 80.83 % 78.62 %

View Latest 20 Readings

ID Sensor Location Temp Humid Bar Timestamp
63724 BME280 Lounge 15.30 77.54 1006.07 2021-05-14 22:24:31
63723 BME280 Lounge 15.10 79.35 1006.29 2021-05-14 22:14:30
63722 BME280 Lounge 15.26 78.28 1006.72 2021-05-14 22:04:29
63721 BME280 Lounge 14.99 78.65 1006.94 2021-05-14 21:54:28
63720 BME280 Lounge 15.05 78.43 1007.15 2021-05-14 21:44:27
63719 BME280 Lounge 15.08 77.92 1007.28 2021-05-14 21:34:26
63718 BME280 Lounge 15.10 77.68 1007.39 2021-05-14 21:24:25
63717 BME280 Lounge 15.35 76.88 1007.22 2021-05-14 21:14:24
63716 BME280 Lounge 15.61 76.54 1007.53 2021-05-14 21:04:22
63715 BME280 Lounge 15.60 77.81 1007.67 2021-05-14 20:54:21
63714 BME280 Lounge 15.83 77.93 1007.69 2021-05-14 20:44:20
63713 BME280 Lounge 15.94 80.03 1007.66 2021-05-14 20:34:19
63712 BME280 Lounge 15.84 78.48 1007.83 2021-05-14 20:24:18
63711 BME280 Lounge 15.63 78.69 1007.86 2021-05-14 20:14:16
63710 BME280 Lounge 15.69 80.04 1007.85 2021-05-14 20:04:15
63709 BME280 Lounge 15.68 77.90 1007.91 2021-05-14 19:54:14
63708 BME280 Lounge 15.46 80.83 1008.12 2021-05-14 19:44:13
63707 BME280 Lounge 15.57 80.05 1008.16 2021-05-14 19:34:12
63706 BME280 Lounge 15.85 80.11 1008.19 2021-05-14 19:24:11
63705 BME280 Lounge 16.13 79.33 1008.17 2021-05-14 19:14:10